Weather in Borkovo

Russia / Novosibirsk Oblast     54°13′24″N   84°03′21″E
temp.,
°C
wind,
m/s
gust,
m/s
humid.,
%
clouds,
%
prec.,
mm/h
press.,
hPa
HPBL,
m
27 november, sat
sat2701:00−17s31298100 0.1 1038232
04:00−12ssw51394100 0.0 1037491
07:00−12ssw61393100 0.1 1037643
10:00−12ssw61493100 0.1 1037671
13:00−10ssw61493100 0.4 1036713
16:00−9ssw71593100 0.6 1035772
19:00−8ssw81792100 0.9 1034849
22:00−7sw81792100 0.4 1032935
28 november, sun
sun2801:00−7sw81793100 1.1 1031901
04:00−7sw81792100 0.4 1030852
07:00−7wsw71594100 1.5 1030825
10:00−7wsw61494100 1.1 1032669
13:00−6sw61393100 1.7 1033613
16:00−6sw61393100 0.4 1034572
19:00−7sw51193100 0.6 1036457
22:00−9sw41195100 0.1 1038320
29 november, mon
mon2901:00−11sw3109795 0.1 1038212
04:00−15ssw2410094 0.0 103960
07:00−16s2410092 0.0 103962
10:00−15s2598100 0.0 103880
13:00−9ssw26908 0.0 1036166
16:00−9s259214 0.0 1035107
19:00−14s229776 0.0 103536
22:00−15s2396100 0.0 103441
30 november, tue
tue3001:00−14s2692100 0.0 103389
04:00−14s3690100 0.0 103296
07:00−14s3890100 0.0 1031127
10:00−12s3108999 0.0 1031173
13:00−8ssw3118522 0.0 1030254
16:00−7ssw3987100 0.0 1030211
19:00−11ssw259642 0.0 103167
22:00−15ssw229828 0.0 103217
1 december, wed
wed101:00−16s239835 0.0 103240
04:00−20s1110075 0.0 10339
07:00−21se2210079 0.0 103410
10:00−19se229947 0.0 103327
13:00−9s3108730 0.0 1031191
16:00−6s4108420 0.0 1029220
19:00−11s369114 0.0 102981
22:00−13s369416 0.0 102964